| time (UTC) | temp F | wind direction | speed MPH | gust MPH | rain 1hr in | rain 24hr in | rain mn in | humidity % | barometer mb |
| 20260902034035 | 78 | 22 | 2.0 | 6.0 | 0.00 | 0.00 | 0.00 | 80 | 1014.7 |
| 20260902033535 | 78 | 76 | 1.0 | 4.0 | 0.00 | 0.00 | 0.00 | 80 | 1014.9 |
| 20260902033105 | 78 | 0 | 0.0 | 0.0 | 0.00 | 0.00 | 0.00 | 79 | 1014.9 |
| 20260902032536 | 78 | 0 | 0.0 | 0.0 | 0.00 | 0.00 | 0.00 | 79 | 1014.8 |
| 20260902032036 | 78 | 0 | 0.0 | 0.0 | 0.00 | 0.00 | 0.00 | 78 | 1014.7 |
| 20260902031603 | 79 | 0 | 0.0 | 0.0 | 0.00 | 0.00 | 0.00 | 79 | 1014.7 |
| 20260902031036 | 79 | 0 | 0.0 | 0.0 | 0.00 | 0.00 | 0.00 | 78 | 1014.7 |
| 20260902030538 | 79 | 0 | 0.0 | 0.0 | 0.00 | 0.00 | 0.00 | 77 | 1014.6 |
| 20260902030104 | 79 | 0 | 0.0 | 0.0 | 0.00 | 0.00 | 0.00 | 76 | 1014.6 |
| 20260902025536 | 80 | 0 | 0.0 | 0.0 | 0.00 | 0.00 | 0.00 | 76 | 1014.6 |
| 20260902025036 | 80 | 0 | 0.0 | 0.0 | 0.00 | 0.00 | 0.00 | 76 | 1014.5 |
| 20260902024601 | 80 | 0 | 0.0 | 0.0 | 0.00 | 0.00 | 0.00 | 76 | 1014.5 |
| 20260902024037 | 80 | 0 | 0.0 | 0.0 | 0.00 | 0.00 | 0.00 | 76 | 1014.4 |
| 20260902023539 | 80 | 0 | 0.0 | 0.0 | 0.00 | 0.00 | 0.00 | 76 | 1014.4 |
| 20260902023104 | 81 | 0 | 0.0 | 0.0 | 0.00 | 0.00 | 0.00 | 76 | 1014.4 |
| 20260902022535 | 81 | 0 | 0.0 | 0.0 | 0.00 | 0.00 | 0.00 | 75 | 1014.3 |
| 20260902022039 | 81 | 0 | 0.0 | 0.0 | 0.00 | 0.00 | 0.00 | 74 | 1014.3 |
| 20260902021556 | 82 | 0 | 0.0 | 0.0 | 0.00 | 0.00 | 0.00 | 74 | 1014.2 |
| 20260902021036 | 82 | 0 | 0.0 | 0.0 | 0.00 | 0.00 | 0.00 | 74 | 1014.1 |
| 20260902020535 | 82 | 0 | 0.0 | 0.0 | 0.00 | 0.00 | 0.00 | 73 | 1014.1 |
| 20260902020101 | 82 | 0 | 0.0 | 3.0 | 0.00 | 0.00 | 0.00 | 73 | 1014.0 |
| 20260902015538 | 83 | 0 | 0.0 | 3.0 | 0.00 | 0.00 | 0.00 | 73 | 1014.0 |
| 20260902015038 | 83 | 56 | 1.0 | 4.0 | 0.00 | 0.00 | 0.00 | 73 | 1013.9 |
| 20260902014557 | 83 | 0 | 2.0 | 4.0 | 0.00 | 0.00 | 0.00 | 73 | 1013.9 |
| 20260902014037 | 83 | 56 | 1.0 | 3.0 | 0.00 | 0.00 | 0.00 | 74 | 1013.8 |
| 20260902013537 | 83 | 0 | 0.0 | 3.0 | 0.00 | 0.00 | 0.00 | 73 | 1013.8 |
| 20260902013054 | 83 | 0 | 1.0 | 3.0 | 0.00 | 0.00 | 0.00 | 73 | 1013.6 |
| 20260902012535 | 83 | 56 | 1.0 | 3.0 | 0.00 | 0.00 | 0.00 | 74 | 1013.7 |
| 20260902012036 | 83 | 0 | 0.0 | 4.0 | 0.00 | 0.00 | 0.00 | 74 | 1013.7 |
| 20260902011553 | 84 | 56 | 0.0 | 4.0 | 0.00 | 0.00 | 0.00 | 74 | 1013.7 |
| 20260902011036 | 84 | 0 | 0.0 | 4.0 | 0.00 | 0.00 | 0.00 | 74 | 1013.8 |
| 20260902010536 | 84 | 0 | 0.0 | 4.0 | 0.00 | 0.00 | 0.00 | 74 | 1013.8 |
| 20260902010058 | 84 | 0 | 0.0 | 4.0 | 0.00 | 0.00 | 0.00 | 74 | 1013.8 |
| 20260902005536 | 84 | 0 | 1.0 | 6.0 | 0.00 | 0.00 | 0.00 | 74 | 1013.9 |
| 20260902005037 | 84 | 78 | 1.0 | 6.0 | 0.00 | 0.00 | 0.00 | 74 | 1013.9 |
| 20260902004601 | 84 | 37 | 2.0 | 6.0 | 0.00 | 0.00 | 0.00 | 75 | 1013.9 |
| 20260902004038 | 84 | 118 | 1.0 | 8.0 | 0.00 | 0.00 | 0.00 | 75 | 1014.0 |
| 20260902003536 | 84 | 103 | 2.0 | 8.0 | 0.00 | 0.00 | 0.00 | 75 | 1014.0 |
| 20260902003102 | 84 | 117 | 4.0 | 8.0 | 0.00 | 0.00 | 0.00 | 75 | 1013.9 |
| 20260902002535 | 84 | 150 | 2.0 | 8.0 | 0.00 | 0.00 | 0.00 | 75 | 1013.9 |
| 20260902002036 | 84 | 131 | 3.0 | 8.0 | 0.00 | 0.00 | 0.00 | 75 | 1013.9 |
| 20260902001606 | 84 | 118 | 4.0 | 8.0 | 0.00 | 0.00 | 0.00 | 75 | 1013.8 |
| 20260902001036 | 85 | 126 | 3.0 | 7.0 | 0.00 | 0.00 | 0.00 | 75 | 1013.8 |
| 20260902000535 | 85 | 128 | 2.0 | 8.0 | 0.00 | 0.00 | 0.00 | 75 | 1013.7 |
| 20260901235536 | 85 | 123 | 4.0 | 11.0 | 0.00 | 0.00 | 0.00 | 74 | 1013.7 |
| 20260901235035 | 85 | 151 | 6.0 | 11.0 | 0.00 | 0.00 | 0.00 | 74 | 1013.7 |
| 20260901234611 | 85 | 105 | 3.0 | 11.0 | 0.00 | 0.00 | 0.00 | 74 | 1013.6 |
| 20260901234036 | 85 | 148 | 7.0 | 11.0 | 0.00 | 0.00 | 0.00 | 73 | 1013.7 |
| 20260901233537 | 85 | 157 | 5.0 | 11.0 | 0.00 | 0.00 | 0.00 | 73 | 1013.6 |
| 20260901233103 | 85 | 168 | 6.0 | 14.0 | 0.00 | 0.00 | 0.00 | 73 | 1013.6 |
| 20260901232536 | 85 | 115 | 7.0 | 16.0 | 0.00 | 0.00 | 0.00 | 73 | 1013.6 |
| 20260901232036 | 86 | 148 | 7.0 | 16.0 | 0.00 | 0.00 | 0.00 | 73 | 1013.6 |
| 20260901231554 | 85 | 145 | 7.0 | 15.0 | 0.00 | 0.00 | 0.00 | 73 | 1013.8 |
| 20260901231035 | 85 | 112 | 6.0 | 15.0 | 0.00 | 0.00 | 0.00 | 73 | 1013.7 |
| 20260901230536 | 85 | 174 | 7.0 | 14.0 | 0.00 | 0.00 | 0.00 | 73 | 1013.8 |
| 20260901230101 | 85 | 136 | 7.0 | 14.0 | 0.00 | 0.00 | 0.00 | 73 | 1013.8 |
| 20260901225537 | 85 | 148 | 8.0 | 14.0 | 0.00 | 0.00 | 0.00 | 73 | 1013.8 |
| 20260901225035 | 85 | 147 | 7.0 | 14.0 | 0.00 | 0.00 | 0.00 | 72 | 1013.8 |
| 20260901224602 | 85 | 126 | 6.0 | 15.0 | 0.00 | 0.00 | 0.00 | 72 | 1013.8 |
| 20260901224037 | 86 | 126 | 6.0 | 15.0 | 0.00 | 0.00 | 0.00 | 70 | 1013.8 |
| 20260901223537 | 86 | 125 | 7.0 | 15.0 | 0.00 | 0.00 | 0.00 | 68 | 1013.8 |
| 20260901223055 | 88 | 136 | 7.0 | 14.0 | 0.00 | 0.00 | 0.00 | 66 | 1013.8 |
| 20260901222536 | 89 | 109 | 7.0 | 13.0 | 0.00 | 0.00 | 0.00 | 63 | 1013.7 |
| 20260901222037 | 90 | 121 | 7.0 | 14.0 | 0.00 | 0.00 | 0.00 | 61 | 1013.7 |
| 20260901221555 | 92 | 121 | 7.0 | 14.0 | 0.00 | 0.00 | 0.00 | 57 | 1013.5 |
| 20260901221036 | 94 | 127 | 7.0 | 14.0 | 0.00 | 0.00 | 0.00 | 54 | 1013.4 |
| 20260901220536 | 94 | 125 | 5.0 | 11.0 | 0.00 | 0.00 | 0.00 | 51 | 1013.2 |
| 20260901220118 | 94 | 87 | 4.0 | 8.0 | 0.00 | 0.00 | 0.00 | 51 | 1013.4 |
| 20260901215536 | 94 | 115 | 2.0 | 11.0 | 0.00 | 0.00 | 0.00 | 51 | 1013.3 |
| 20260901215035 | 94 | 66 | 3.0 | 12.0 | 0.00 | 0.00 | 0.00 | 51 | 1013.4 |
| 20260901214558 | 94 | 44 | 5.0 | 12.0 | 0.00 | 0.00 | 0.00 | 50 | 1013.5 |
| 20260901214036 | 94 | 35 | 5.0 | 11.0 | 0.00 | 0.00 | 0.00 | 50 | 1013.4 |
| 20260901213537 | 95 | 52 | 4.0 | 12.0 | 0.00 | 0.00 | 0.00 | 49 | 1013.4 |
| 20260901213105 | 95 | 20 | 7.0 | 12.0 | 0.00 | 0.00 | 0.00 | 50 | 1013.4 |
| 20260901212537 | 95 | 55 | 7.0 | 12.0 | 0.00 | 0.00 | 0.00 | 50 | 1013.5 |
| 20260901212036 | 95 | 41 | 5.0 | 10.0 | 0.00 | 0.00 | 0.00 | 49 | 1013.5 |
| 20260901211554 | 95 | 115 | 4.0 | 11.0 | 0.00 | 0.00 | 0.00 | 49 | 1013.6 |
| 20260901211036 | 95 | 86 | 2.0 | 11.0 | 0.00 | 0.00 | 0.00 | 49 | 1013.6 |
| 20260901210537 | 95 | 44 | 3.0 | 11.0 | 0.00 | 0.00 | 0.00 | 49 | 1013.6 |
| 20260901210106 | 95 | 57 | 4.0 | 7.0 | 0.00 | 0.00 | 0.00 | 49 | 1013.7 |
| 20260901205536 | 95 | 42 | 2.0 | 8.0 | 0.00 | 0.00 | 0.00 | 50 | 1013.7 |
| 20260901205038 | 95 | 16 | 2.0 | 11.0 | 0.00 | 0.00 | 0.00 | 50 | 1013.8 |
| 20260901204601 | 95 | 26 | 7.0 | 11.0 | 0.00 | 0.00 | 0.00 | 49 | 1013.8 |
| 20260901204037 | 95 | 333 | 4.0 | 9.0 | 0.00 | 0.00 | 0.00 | 50 | 1013.8 |
| 20260901203536 | 95 | 24 | 3.0 | 12.0 | 0.00 | 0.00 | 0.00 | 50 | 1014.0 |
| 20260901203056 | 96 | 71 | 6.0 | 12.0 | 0.00 | 0.00 | 0.00 | 50 | 1014.1 |
| 20260901202537 | 95 | 23 | 1.0 | 10.0 | 0.00 | 0.00 | 0.00 | 50 | 1014.1 |
| 20260901202038 | 95 | 12 | 6.0 | 14.0 | 0.00 | 0.00 | 0.00 | 50 | 1014.2 |
| 20260901201558 | 95 | 15 | 9.0 | 15.0 | 0.00 | 0.00 | 0.00 | 49 | 1014.2 |
| 20260901201036 | 95 | 19 | 10.0 | 15.0 | 0.00 | 0.00 | 0.00 | 49 | 1014.3 |
| 20260901200535 | 95 | 15 | 9.0 | 13.0 | 0.00 | 0.00 | 0.00 | 49 | 1014.3 |
| 20260901200052 | 96 | 51 | 5.0 | 13.0 | 0.00 | 0.00 | 0.00 | 49 | 1014.3 |
| 20260901195536 | 95 | 62 | 3.0 | 13.0 | 0.00 | 0.00 | 0.00 | 50 | 1014.4 |
| 20260901195036 | 95 | 29 | 4.0 | 13.0 | 0.00 | 0.00 | 0.00 | 51 | 1014.5 |
| 20260901194605 | 95 | 346 | 4.0 | 10.0 | 0.00 | 0.00 | 0.00 | 51 | 1014.5 |
| 20260901194036 | 95 | 51 | 4.0 | 14.0 | 0.00 | 0.00 | 0.00 | 51 | 1014.6 |
| 20260901193536 | 95 | 73 | 3.0 | 14.0 | 0.00 | 0.00 | 0.00 | 52 | 1014.6 |
| 20260901193105 | 94 | 54 | 3.0 | 14.0 | 0.00 | 0.00 | 0.00 | 52 | 1014.7 |
| 20260901192536 | 94 | 245 | 4.0 | 12.0 | 0.00 | 0.00 | 0.00 | 52 | 1014.7 |
| 20260901192037 | 94 | 40 | 5.0 | 12.0 | 0.00 | 0.00 | 0.00 | 52 | 1014.7 |
| 20260901191555 | 95 | 92 | 4.0 | 12.0 | 0.00 | 0.00 | 0.00 | 51 | 1014.8 |
| 20260901191035 | 95 | 360 | 4.0 | 11.0 | 0.00 | 0.00 | 0.00 | 52 | 1014.9 |
| 20260901190536 | 94 | 107 | 4.0 | 11.0 | 0.00 | 0.00 | 0.00 | 52 | 1014.9 |
| 20260901190050 | 94 | 115 | 4.0 | 10.0 | 0.00 | 0.00 | 0.00 | 52 | 1015.0 |
| 20260901185537 | 93 | 24 | 2.0 | 11.0 | 0.00 | 0.00 | 0.00 | 53 | 1014.9 |
| 20260901185036 | 93 | 158 | 1.0 | 11.0 | 0.00 | 0.00 | 0.00 | 52 | 1015.0 |
| 20260901184601 | 93 | 63 | 6.0 | 11.0 | 0.00 | 0.00 | 0.00 | 51 | 1015.1 |
| 20260901184036 | 93 | 105 | 5.0 | 11.0 | 0.00 | 0.00 | 0.00 | 52 | 1015.2 |
| 20260901183535 | 94 | 66 | 4.0 | 11.0 | 0.00 | 0.00 | 0.00 | 51 | 1015.3 |
| 20260901183056 | 94 | 68 | 7.0 | 11.0 | 0.00 | 0.00 | 0.00 | 52 | 1015.4 |
| 20260901182536 | 94 | 64 | 4.0 | 10.0 | 0.00 | 0.00 | 0.00 | 53 | 1015.5 |
| 20260901182036 | 93 | 90 | 5.0 | 10.0 | 0.00 | 0.00 | 0.00 | 55 | 1015.6 |
| 20260901181552 | 93 | 178 | 4.0 | 11.0 | 0.00 | 0.00 | 0.00 | 54 | 1015.7 |
| 20260901181035 | 93 | 69 | 5.0 | 16.0 | 0.00 | 0.00 | 0.00 | 54 | 1015.9 |
| 20260901180536 | 94 | 46 | 7.0 | 16.0 | 0.00 | 0.00 | 0.00 | 55 | 1015.9 |
| 20260901180100 | 93 | 76 | 3.0 | 16.0 | 0.00 | 0.00 | 0.00 | 56 | 1016.0 |
| 20260901175537 | 92 | 89 | 6.0 | 16.0 | 0.00 | 0.00 | 0.00 | 57 | 1016.1 |
| 20260901175036 | 92 | 5 | 3.0 | 12.0 | 0.00 | 0.00 | 0.00 | 57 | 1016.1 |
| 20260901174557 | 92 | 29 | 5.0 | 12.0 | 0.00 | 0.00 | 0.00 | 57 | 1016.3 |
| 20260901174038 | 92 | 70 | 6.0 | 11.0 | 0.00 | 0.00 | 0.00 | 57 | 1016.3 |
| 20260901173536 | 92 | 67 | 4.0 | 11.0 | 0.00 | 0.00 | 0.00 | 57 | 1016.4 |
| 20260901173056 | 92 | 77 | 5.0 | 12.0 | 0.00 | 0.00 | 0.00 | 58 | 1016.5 |
| 20260901172536 | 92 | 241 | 1.0 | 12.0 | 0.00 | 0.00 | 0.00 | 58 | 1016.5 |
| 20260901172036 | 92 | 65 | 9.0 | 12.0 | 0.00 | 0.00 | 0.00 | 58 | 1016.6 |
| 20260901171600 | 91 | 35 | 5.0 | 11.0 | 0.00 | 0.00 | 0.00 | 58 | 1016.7 |
| 20260901171037 | 91 | 29 | 6.0 | 11.0 | 0.00 | 0.00 | 0.00 | 57 | 1016.7 |
| 20260901170536 | 92 | 51 | 5.0 | 10.0 | 0.00 | 0.00 | 0.00 | 58 | 1016.9 |
| 20260901170116 | 92 | 360 | 5.0 | 9.0 | 0.00 | 0.00 | 0.00 | 58 | 1016.8 |
| 20260901165536 | 92 | 29 | 4.0 | 13.0 | 0.00 | 0.00 | 0.00 | 58 | 1016.9 |
| 20260901165036 | 91 | 78 | 6.0 | 13.0 | 0.00 | 0.00 | 0.00 | 61 | 1017.0 |
| 20260901164607 | 90 | 19 | 3.0 | 12.0 | 0.00 | 0.00 | 0.00 | 63 | 1017.0 |
| 20260901164043 | 90 | 59 | 7.0 | 12.0 | 0.00 | 0.00 | 0.00 | 62 | 1017.1 |
| 20260901163537 | 91 | 49 | 4.0 | 10.0 | 0.00 | 0.00 | 0.00 | 62 | 1017.1 |
| 20260901163100 | 91 | 167 | 3.0 | 9.0 | 0.00 | 0.00 | 0.00 | 62 | 1017.1 |
| 20260901162536 | 90 | 349 | 3.0 | 11.0 | 0.00 | 0.00 | 0.00 | 63 | 1017.2 |
| 20260901162039 | 90 | 87 | 7.0 | 11.0 | 0.00 | 0.00 | 0.00 | 63 | 1017.2 |
| 20260901161601 | 90 | 17 | 4.0 | 12.0 | 0.00 | 0.00 | 0.00 | 63 | 1017.2 |
| 20260901161036 | 90 | 78 | 3.0 | 12.0 | 0.00 | 0.00 | 0.00 | 63 | 1017.1 |
| 20260901160538 | 90 | 45 | 5.0 | 10.0 | 0.00 | 0.00 | 0.00 | 65 | 1017.3 |
| 20260901160056 | 89 | 77 | 2.0 | 9.0 | 0.00 | 0.00 | 0.00 | 64 | 1017.2 |
| 20260901155536 | 89 | 98 | 4.0 | 9.0 | 0.00 | 0.00 | 0.00 | 66 | 1017.3 |
| 20260901155036 | 89 | 161 | 2.0 | 11.0 | 0.00 | 0.00 | 0.00 | 66 | 1017.3 |
| 20260901154602 | 89 | 77 | 5.0 | 11.0 | 0.00 | 0.00 | 0.00 | 66 | 1017.3 |
| 20260901154035 | 89 | 48 | 3.0 | 10.0 | 0.00 | 0.00 | 0.00 | 67 | 1017.3 |
| 20260901153537 | 89 | 326 | 5.0 | 10.0 | 0.00 | 0.00 | 0.00 | 67 | 1017.2 |
| 20260901153113 | 88 | 333 | 4.0 | 10.0 | 0.00 | 0.00 | 0.00 | 68 | 1017.3 |
| 20260901152538 | 88 | 103 | 2.0 | 10.0 | 0.00 | 0.00 | 0.00 | 69 | 1017.3 |
| 20260901152037 | 88 | 5 | 5.0 | 10.0 | 0.00 | 0.00 | 0.00 | 70 | 1017.3 |
| 20260901151601 | 87 | 328 | 3.0 | 8.0 | 0.00 | 0.00 | 0.00 | 70 | 1017.3 |
| 20260901151036 | 87 | 5 | 5.0 | 8.0 | 0.00 | 0.00 | 0.00 | 71 | 1017.4 |
| 20260901150536 | 87 | 36 | 2.0 | 8.0 | 0.00 | 0.00 | 0.00 | 72 | 1017.4 |
| 20260901150108 | 86 | 20 | 4.0 | 8.0 | 0.00 | 0.00 | 0.00 | 73 | 1017.4 |
| 20260901145537 | 86 | 334 | 4.0 | 8.0 | 0.00 | 0.00 | 0.00 | 74 | 1017.4 |
| 20260901145037 | 86 | 314 | 2.0 | 8.0 | 0.00 | 0.00 | 0.00 | 75 | 1017.4 |
| 20260901144604 | 86 | 58 | 4.0 | 8.0 | 0.00 | 0.00 | 0.00 | 75 | 1017.5 |
| 20260901144040 | 85 | 15 | 3.0 | 7.0 | 0.00 | 0.00 | 0.00 | 76 | 1017.5 |
| 20260901143536 | 85 | 286 | 2.0 | 7.0 | 0.00 | 0.00 | 0.00 | 77 | 1017.5 |
| 20260901143100 | 85 | 329 | 2.0 | 7.0 | 0.00 | 0.00 | 0.00 | 78 | 1017.5 |
| 20260901142536 | 84 | 319 | 3.0 | 6.0 | 0.00 | 0.00 | 0.00 | 78 | 1017.4 |
| 20260901142036 | 84 | 27 | 3.0 | 9.0 | 0.00 | 0.00 | 0.00 | 79 | 1017.4 |
| 20260901141553 | 83 | 326 | 3.0 | 9.0 | 0.00 | 0.00 | 0.00 | 80 | 1017.3 |
| 20260901141035 | 83 | 331 | 4.0 | 8.0 | 0.00 | 0.00 | 0.00 | 81 | 1017.5 |
| 20260901140537 | 83 | 348 | 3.0 | 6.0 | 0.00 | 0.00 | 0.00 | 81 | 1017.6 |
| 20260901140108 | 82 | 30 | 3.0 | 5.0 | 0.00 | 0.00 | 0.00 | 83 | 1017.7 |
| 20260901135537 | 82 | 343 | 2.0 | 5.0 | 0.00 | 0.00 | 0.00 | 84 | 1017.7 |
| 20260901135037 | 82 | 352 | 2.0 | 5.0 | 0.00 | 0.00 | 0.00 | 84 | 1017.7 |
| 20260901134553 | 81 | 42 | 3.0 | 6.0 | 0.00 | 0.00 | 0.00 | 85 | 1017.8 |
| 20260901134036 | 81 | 20 | 3.0 | 6.0 | 0.00 | 0.00 | 0.00 | 86 | 1017.6 |
| 20260901133537 | 80 | 15 | 3.0 | 5.0 | 0.00 | 0.00 | 0.00 | 87 | 1017.6 |
| 20260901133112 | 79 | 33 | 2.0 | 4.0 | 0.00 | 0.00 | 0.00 | 87 | 1017.6 |
| 20260901132536 | 79 | 33 | 2.0 | 4.0 | 0.00 | 0.00 | 0.00 | 88 | 1017.5 |
| 20260901132036 | 78 | 32 | 2.0 | 4.0 | 0.00 | 0.00 | 0.00 | 89 | 1017.5 |
| 20260901131555 | 78 | 32 | 1.0 | 4.0 | 0.00 | 0.00 | 0.00 | 90 | 1017.5 |
| 20260901131036 | 77 | 32 | 2.0 | 4.0 | 0.00 | 0.00 | 0.00 | 90 | 1017.5 |
| 20260901130536 | 77 | 32 | 1.0 | 4.0 | 0.00 | 0.00 | 0.00 | 91 | 1017.6 |
| 20260901125538 | 76 | 32 | 2.0 | 4.0 | 0.00 | 0.00 | 0.00 | 91 | 1017.5 |
| 20260901125037 | 76 | 0 | 1.0 | 4.0 | 0.00 | 0.00 | 0.00 | 92 | 1017.5 |
| 20260901124606 | 75 | 32 | 2.0 | 4.0 | 0.00 | 0.00 | 0.00 | 92 | 1017.4 |
| 20260901124037 | 75 | 49 | 2.0 | 5.0 | 0.00 | 0.00 | 0.00 | 92 | 1017.3 |
| 20260901123536 | 75 | 26 | 2.0 | 5.0 | 0.00 | 0.00 | 0.00 | 92 | 1017.2 |
| 20260901123104 | 74 | 153 | 2.0 | 3.0 | 0.00 | 0.00 | 0.00 | 91 | 1017.1 |
| 20260901122536 | 74 | 153 | 1.0 | 3.0 | 0.00 | 0.00 | 0.00 | 91 | 1017.1 |
| 20260901122036 | 74 | 0 | 0.0 | 2.0 | 0.00 | 0.00 | 0.00 | 90 | 1017.1 |
| 20260901121603 | 74 | 0 | 0.0 | 2.0 | 0.00 | 0.00 | 0.00 | 90 | 1017.0 |
| 20260901121036 | 74 | 0 | 1.0 | 2.0 | 0.00 | 0.00 | 0.00 | 90 | 1017.0 |
| 20260901120536 | 74 | 153 | 0.0 | 3.0 | 0.00 | 0.00 | 0.00 | 90 | 1016.9 |
| 20260901120111 | 74 | 0 | 0.0 | 3.0 | 0.00 | 0.00 | 0.00 | 90 | 1016.8 |
| 20260901115536 | 74 | 153 | 0.0 | 3.0 | 0.00 | 0.00 | 0.00 | 90 | 1016.6 |
| 20260901115036 | 74 | 0 | 0.0 | 0.0 | 0.00 | 0.00 | 0.00 | 90 | 1016.6 |
| 20260901114553 | 74 | 0 | 0.0 | 0.0 | 0.00 | 0.00 | 0.00 | 90 | 1016.5 |
| 20260901114036 | 74 | 0 | 0.0 | 0.0 | 0.00 | 0.00 | 0.00 | 90 | 1016.5 |
| 20260901113536 | 74 | 0 | 0.0 | 0.0 | 0.00 | 0.00 | 0.00 | 90 | 1016.5 |
| 20260901113101 | 74 | 0 | 0.0 | 0.0 | 0.00 | 0.00 | 0.00 | 90 | 1016.5 |
| 20260901112537 | 74 | 0 | 0.0 | 0.0 | 0.00 | 0.00 | 0.00 | 90 | 1016.6 |
| 20260901112036 | 74 | 0 | 0.0 | 0.0 | 0.00 | 0.00 | 0.00 | 90 | 1016.5 |
| 20260901111554 | 74 | 0 | 0.0 | 0.0 | 0.00 | 0.00 | 0.00 | 90 | 1016.4 |
| 20260901111036 | 74 | 0 | 0.0 | 0.0 | 0.00 | 0.00 | 0.00 | 89 | 1016.3 |
| 20260901110535 | 74 | 0 | 0.0 | 0.0 | 0.00 | 0.00 | 0.00 | 89 | 1016.4 |
| 20260901110105 | 74 | 0 | 0.0 | 0.0 | 0.00 | 0.00 | 0.00 | 89 | 1016.4 |
| 20260901105536 | 74 | 0 | 0.0 | 0.0 | 0.00 | 0.00 | 0.00 | 89 | 1016.3 |
| 20260901105041 | 74 | 0 | 0.0 | 0.0 | 0.00 | 0.00 | 0.00 | 89 | 1016.2 |
| 20260901104559 | 74 | 0 | 0.0 | 0.0 | 0.00 | 0.00 | 0.00 | 89 | 1016.2 |
| 20260901104036 | 74 | 0 | 0.0 | 0.0 | 0.00 | 0.00 | 0.00 | 89 | 1016.2 |
| 20260901103536 | 74 | 0 | 0.0 | 0.0 | 0.00 | 0.00 | 0.00 | 89 | 1016.3 |
| 20260901103053 | 74 | 0 | 0.0 | 0.0 | 0.00 | 0.00 | 0.00 | 89 | 1016.3 |
| 20260901102536 | 74 | 0 | 0.0 | 0.0 | 0.00 | 0.00 | 0.00 | 88 | 1016.3 |
| 20260901102036 | 74 | 0 | 0.0 | 0.0 | 0.00 | 0.00 | 0.00 | 88 | 1016.2 |
| 20260901101600 | 75 | 0 | 0.0 | 0.0 | 0.00 | 0.00 | 0.00 | 89 | 1016.2 |
| 20260901101036 | 75 | 0 | 0.0 | 0.0 | 0.00 | 0.00 | 0.00 | 89 | 1016.3 |
| 20260901100537 | 75 | 0 | 0.0 | 0.0 | 0.00 | 0.00 | 0.00 | 88 | 1016.2 |
| 20260901100055 | 75 | 0 | 0.0 | 0.0 | 0.00 | 0.00 | 0.00 | 88 | 1016.2 |
| 20260901095536 | 75 | 0 | 0.0 | 0.0 | 0.00 | 0.00 | 0.00 | 88 | 1016.1 |
| 20260901095036 | 75 | 0 | 0.0 | 0.0 | 0.00 | 0.00 | 0.00 | 87 | 1016.0 |
| 20260901094602 | 75 | 0 | 0.0 | 0.0 | 0.00 | 0.00 | 0.00 | 87 | 1016.0 |
| 20260901094035 | 75 | 0 | 0.0 | 0.0 | 0.00 | 0.00 | 0.00 | 87 | 1016.1 |
| 20260901093539 | 75 | 0 | 0.0 | 0.0 | 0.00 | 0.00 | 0.00 | 87 | 1016.2 |
| 20260901093058 | 76 | 0 | 0.0 | 0.0 | 0.00 | 0.00 | 0.00 | 87 | 1016.3 |
| 20260901092536 | 76 | 0 | 0.0 | 0.0 | 0.00 | 0.00 | 0.00 | 87 | 1016.3 |
| 20260901092037 | 76 | 0 | 0.0 | 0.0 | 0.00 | 0.00 | 0.00 | 87 | 1016.3 |
| 20260901091558 | 76 | 0 | 0.0 | 0.0 | 0.00 | 0.00 | 0.00 | 87 | 1016.4 |
| 20260901091036 | 76 | 0 | 0.0 | 0.0 | 0.00 | 0.00 | 0.00 | 86 | 1016.5 |
| 20260901090536 | 76 | 0 | 0.0 | 0.0 | 0.00 | 0.00 | 0.00 | 86 | 1016.5 |
| 20260901085537 | 77 | 0 | 0.0 | 0.0 | 0.00 | 0.00 | 0.00 | 86 | 1016.5 |
| 20260901085036 | 77 | 0 | 0.0 | 0.0 | 0.00 | 0.00 | 0.00 | 86 | 1016.5 |
| 20260901084607 | 77 | 0 | 0.0 | 0.0 | 0.00 | 0.00 | 0.00 | 86 | 1016.4 |
| 20260901084036 | 77 | 0 | 0.0 | 0.0 | 0.00 | 0.00 | 0.00 | 86 | 1016.4 |
| 20260901083538 | 77 | 0 | 0.0 | 0.0 | 0.00 | 0.00 | 0.00 | 86 | 1016.5 |
| 20260901083053 | 78 | 0 | 0.0 | 0.0 | 0.00 | 0.00 | 0.00 | 86 | 1016.4 |
| 20260901082535 | 78 | 0 | 0.0 | 0.0 | 0.00 | 0.00 | 0.00 | 85 | 1016.4 |
| 20260901082038 | 78 | 0 | 0.0 | 0.0 | 0.00 | 0.00 | 0.00 | 86 | 1016.5 |
| 20260901081602 | 78 | 0 | 0.0 | 2.0 | 0.00 | 0.00 | 0.00 | 86 | 1016.5 |
| 20260901081037 | 78 | 0 | 0.0 | 2.0 | 0.00 | 0.00 | 0.00 | 86 | 1016.5 |
| 20260901080537 | 78 | 0 | 0.0 | 2.0 | 0.00 | 0.00 | 0.00 | 86 | 1016.5 |
| 20260901075537 | 78 | 0 | 0.0 | 0.0 | 0.00 | 0.00 | 0.00 | 84 | 1016.4 |
| 20260901075037 | 78 | 0 | 0.0 | 0.0 | 0.00 | 0.00 | 0.00 | 84 | 1016.4 |
| 20260901074605 | 79 | 0 | 0.0 | 0.0 | 0.00 | 0.00 | 0.00 | 84 | 1016.3 |
| 20260901074037 | 79 | 0 | 0.0 | 0.0 | 0.00 | 0.00 | 0.00 | 84 | 1016.3 |
| 20260901073536 | 79 | 0 | 0.0 | 0.0 | 0.00 | 0.00 | 0.00 | 84 | 1016.3 |
| 20260901073105 | 79 | 0 | 0.0 | 0.0 | 0.00 | 0.00 | 0.00 | 83 | 1016.4 |
| 20260901072537 | 79 | 0 | 0.0 | 0.0 | 0.00 | 0.00 | 0.00 | 83 | 1016.5 |
| 20260901072037 | 79 | 0 | 0.0 | 0.0 | 0.00 | 0.00 | 0.00 | 83 | 1016.6 |
| 20260901071600 | 79 | 0 | 0.0 | 1.0 | 0.00 | 0.00 | 0.00 | 83 | 1016.4 |
| 20260901071035 | 79 | 0 | 0.0 | 1.0 | 0.00 | 0.00 | 0.00 | 82 | 1016.5 |
| 20260901070536 | 79 | 0 | 0.0 | 1.0 | 0.00 | 0.00 | 0.00 | 82 | 1016.4 |
| 20260901070104 | 80 | 153 | 0.0 | 0.0 | 0.00 | 0.00 | 0.00 | 82 | 1016.4 |
| 20260901065536 | 80 | 0 | 0.0 | 0.0 | 0.00 | 0.00 | 0.00 | 82 | 1016.5 |
| 20260901065036 | 80 | 0 | 0.0 | 1.0 | 0.00 | 0.00 | 0.00 | 82 | 1016.5 |
| 20260901064557 | 80 | 0 | 0.0 | 1.0 | 0.00 | 0.00 | 0.00 | 81 | 1016.6 |
| 20260901064037 | 80 | 0 | 0.0 | 2.0 | 0.00 | 0.00 | 0.00 | 81 | 1016.5 |
| 20260901063536 | 80 | 0 | 0.0 | 2.0 | 0.00 | 0.00 | 0.00 | 81 | 1016.6 |
| 20260901063110 | 80 | 0 | 0.0 | 3.0 | 0.00 | 0.00 | 0.00 | 81 | 1016.6 |
| 20260901062541 | 80 | 152 | 0.0 | 3.0 | 0.00 | 0.00 | 0.00 | 81 | 1016.6 |
| 20260901062038 | 80 | 152 | 1.0 | 2.0 | 0.00 | 0.00 | 0.00 | 80 | 1016.6 |
| 20260901061553 | 80 | 0 | 0.0 | 2.0 | 0.00 | 0.00 | 0.00 | 80 | 1016.5 |
| 20260901061037 | 80 | 0 | 0.0 | 3.0 | 0.00 | 0.00 | 0.00 | 80 | 1016.4 |
| 20260901060537 | 81 | 0 | 0.0 | 3.0 | 0.00 | 0.00 | 0.00 | 79 | 1016.4 |
| 20260901055537 | 81 | 152 | 1.0 | 3.0 | 0.00 | 0.00 | 0.00 | 79 | 1016.5 |
| 20260901055036 | 81 | 0 | 1.0 | 5.0 | 0.00 | 0.00 | 0.00 | 79 | 1016.4 |
| 20260901054600 | 81 | 136 | 1.0 | 5.0 | 0.00 | 0.00 | 0.00 | 79 | 1016.5 |
| 20260901054036 | 81 | 136 | 2.0 | 8.0 | 0.00 | 0.00 | 0.00 | 79 | 1016.3 |
| 20260901053539 | 81 | 140 | 3.0 | 8.0 | 0.00 | 0.00 | 0.00 | 78 | 1016.3 |
| 20260901053056 | 81 | 137 | 2.0 | 7.0 | 0.00 | 0.00 | 0.00 | 78 | 1016.3 |
| 20260901052538 | 81 | 132 | 2.0 | 7.0 | 0.00 | 0.00 | 0.00 | 78 | 1016.3 |
| 20260901052036 | 81 | 91 | 2.0 | 7.0 | 0.00 | 0.00 | 0.00 | 78 | 1016.3 |
| 20260901051616 | 81 | 133 | 2.0 | 7.0 | 0.00 | 0.00 | 0.00 | 78 | 1016.1 |
| 20260901051036 | 81 | 85 | 2.0 | 7.0 | 0.00 | 0.00 | 0.00 | 78 | 1016.1 |
| 20260901050536 | 80 | 100 | 2.0 | 7.0 | 0.00 | 0.00 | 0.00 | 78 | 1016.1 |
| 20260901045536 | 80 | 157 | 0.0 | 2.0 | 0.00 | 0.00 | 0.00 | 78 | 1015.8 |
| 20260901045037 | 81 | 157 | 0.0 | 2.0 | 0.00 | 0.00 | 0.00 | 77 | 1015.7 |
| 20260901044604 | 81 | 0 | 0.0 | 0.0 | 0.00 | 0.00 | 0.00 | 77 | 1015.6 |
| 20260901044036 | 81 | 0 | 0.0 | 0.0 | 0.00 | 0.00 | 0.00 | 76 | 1015.5 |
| 20260901043537 | 81 | 0 | 0.0 | 0.0 | 0.00 | 0.00 | 0.00 | 77 | 1015.5 |
| 20260901043056 | 81 | 0 | 0.0 | 0.0 | 0.00 | 0.00 | 0.00 | 77 | 1015.5 |
| 20260901042544 | 81 | 0 | 0.0 | 0.0 | 0.00 | 0.00 | 0.00 | 75 | 1015.5 |
| 20260901042036 | 82 | 0 | 0.0 | 0.0 | 0.00 | 0.00 | 0.00 | 75 | 1015.5 |
| 20260901041602 | 82 | 0 | 0.0 | 0.0 | 0.00 | 0.00 | 0.00 | 75 | 1015.5 |
| 20260901041036 | 82 | 0 | 0.0 | 0.0 | 0.00 | 0.00 | 0.00 | 74 | 1015.5 |
| 20260901040536 | 82 | 0 | 0.0 | 0.0 | 0.00 | 0.00 | 0.00 | 74 | 1015.4 |
| 20260901040100 | 82 | 0 | 0.0 | 0.0 | 0.00 | 0.00 | 0.00 | 74 | 1015.4 |
| 20260901035538 | 82 | 0 | 0.0 | 0.0 | 0.00 | 0.00 | 0.00 | 74 | 1015.3 |
| 20260901035036 | 82 | 0 | 0.0 | 0.0 | 0.00 | 0.00 | 0.00 | 74 | 1015.3 |
| 20260901034603 | 82 | 0 | 0.0 | 0.0 | 0.00 | 0.00 | 0.00 | 74 | 1015.4 |